When you browse on this site, cookies collect data to enhance your experience and personalize the content and advertising you see.
Visit our Privacy Policy to learn more. By continuing to use the site, you agree to this use of cookies and data.

Tiempo cada hora Lampa

Hoy, 14 Agosto, Viernes

Tiempo Temperatura Precipitaciones Viento Presión Humedad
00:00 +6°C° 0 mm 1 mps 689 mmHg 89%
01:00 +5°C° 0 mm 0 mps 689 mmHg 88%
02:00 +6°C° 0 mm 1 mps 689 mmHg 88%
03:00 +6°C° 0 mm 1 mps 689 mmHg 88%
04:00 +5°C° 0 mm 1 mps 689 mmHg 88%
05:00 +6°C° 0 mm 1 mps 690 mmHg 87%
06:00 +6°C° 0 mm 1 mps 690 mmHg 85%
07:00 +5°C° 0 mm 0 mps 690 mmHg 84%
08:00 +7°C° 0 mm 1 mps 691 mmHg 78%
09:00 +9°C° 0 mm 1 mps 691 mmHg 72%
10:00 +10°C° 0 mm 1 mps 691 mmHg 67%
11:00 +11°C° 0 mm 1 mps 691 mmHg 64%
12:00 +11°C° 0 mm 1 mps 691 mmHg 61%
13:00 +12°C° 0 mm 1 mps 690 mmHg 58%
14:00 +12°C° 0 mm 2 mps 690 mmHg 61%
15:00 +10°C° 0 mm 2 mps 690 mmHg 64%
16:00 +10°C° 0 mm 2 mps 690 mmHg 67%
17:00 +9°C° 0 mm 2 mps 691 mmHg 73%
18:00 +8°C° 0 mm 1 mps 691 mmHg 80%
19:00 +7°C° 0 mm 1 mps 692 mmHg 87%
20:00 +7°C° 0 mm 1 mps 691 mmHg 87%
21:00 +6°C° 0 mm 1 mps 691 mmHg 88%
22:00 +6°C° 0 mm 1 mps 691 mmHg 88%
23:00 +6°C° 0 mm 1 mps 691 mmHg 89%

Mañana, 15 Agosto, Sábado

Tiempo Temperatura Precipitaciones Viento Presión Humedad
00:00 +5°C° 0 mm 1 mps 690 mmHg 89%
01:00 +5°C° 0 mm 1 mps 690 mmHg 90%
02:00 +5°C° 0 mm 1 mps 690 mmHg 90%
03:00 +5°C° 0 mm 1 mps 690 mmHg 91%
04:00 +5°C° 0 mm 1 mps 690 mmHg 91%
05:00 +5°C° 0 mm 1 mps 690 mmHg 91%
06:00 +5°C° 0 mm 1 mps 690 mmHg 90%
07:00 +5°C° 0 mm 1 mps 690 mmHg 90%
08:00 +7°C° 0 mm 1 mps 690 mmHg 81%
09:00 +9°C° 0 mm 1 mps 691 mmHg 73%
10:00 +11°C° 0 mm 1 mps 691 mmHg 64%
11:00 +12°C° 0 mm 2 mps 691 mmHg 59%
12:00 +13°C° 0 mm 2 mps 691 mmHg 55%
13:00 +14°C° 0 mm 2 mps 691 mmHg 51%
14:00 +14°C° 0 mm 2 mps 691 mmHg 54%
15:00 +13°C° 0 mm 2 mps 691 mmHg 57%
16:00 +13°C° 0 mm 2 mps 691 mmHg 59%
17:00 +10°C° 0 mm 2 mps 691 mmHg 67%
18:00 +9°C° 0 mm 1 mps 691 mmHg 74%
19:00 +7°C° 0 mm 1 mps 691 mmHg 81%
20:00 +7°C° 0 mm 1 mps 691 mmHg 81%
21:00 +7°C° 0 mm 1 mps 691 mmHg 80%
22:00 +6°C° 0 mm 1 mps 691 mmHg 80%
23:00 +6°C° 0 mm 1 mps 690 mmHg 79%

Pasado mañana, 16 Agosto, Domingo

Tiempo Temperatura Precipitaciones Viento Presión Humedad
00:00 +6°C° 0 mm 1 mps 690 mmHg 77%
01:00 +5°C° 0 mm 1 mps 690 mmHg 76%
02:00 +5°C° 0 mm 1 mps 690 mmHg 75%
03:00 +5°C° 0 mm 1 mps 689 mmHg 75%
04:00 +5°C° 0 mm 1 mps 689 mmHg 74%
05:00 +5°C° 0 mm 1 mps 689 mmHg 72%
06:00 +5°C° 0 mm 1 mps 689 mmHg 70%
07:00 +6°C° 0 mm 1 mps 689 mmHg 68%
08:00 +8°C° 0 mm 1 mps 690 mmHg 59%
09:00 +11°C° 0 mm 1 mps 690 mmHg 50%
10:00 +13°C° 0 mm 1 mps 691 mmHg 42%
11:00 +14°C° 0 mm 1 mps 691 mmHg 40%
12:00 +15°C° 0 mm 1 mps 691 mmHg 37%
13:00 +16°C° 0 mm 2 mps 691 mmHg 35%
14:00 +16°C° 0 mm 2 mps 691 mmHg 39%
15:00 +15°C° 0 mm 2 mps 690 mmHg 43%
16:00 +15°C° 0 mm 2 mps 690 mmHg 47%
17:00 +12°C° 0 mm 1 mps 690 mmHg 55%
18:00 +10°C° 0 mm 1 mps 690 mmHg 64%
19:00 +8°C° 0 mm 1 mps 690 mmHg 72%
20:00 +8°C° 0 mm 1 mps 690 mmHg 72%
21:00 +7°C° 0 mm 1 mps 690 mmHg 72%
22:00 +7°C° 0 mm 1 mps 690 mmHg 72%
23:00 +6°C° 0 mm 0 mps 689 mmHg 72%

17 Agosto, Lunes

Tiempo Temperatura Precipitaciones Viento Presión Humedad
00:00 +5°C° 0 mm 0 mps 689 mmHg 72%
01:00 +5°C° 0 mm 0 mps 689 mmHg 71%
02:00 +5°C° 0 mm 0 mps 689 mmHg 70%
03:00 +5°C° 0 mm 0 mps 688 mmHg 69%
04:00 +4°C° 0 mm 0 mps 688 mmHg 68%
05:00 +5°C° 0 mm 0 mps 688 mmHg 66%
06:00 +5°C° 0 mm 0 mps 689 mmHg 64%
07:00 +6°C° 0 mm 0 mps 689 mmHg 62%
08:00 +8°C° 0 mm 0 mps 689 mmHg 55%
09:00 +11°C° 0 mm 0 mps 690 mmHg 48%
10:00 +14°C° 0 mm 1 mps 690 mmHg 41%
11:00 +15°C° 0 mm 1 mps 690 mmHg 42%
12:00 +16°C° 0 mm 2 mps 690 mmHg 43%
13:00 +16°C° 0 mm 2 mps 689 mmHg 43%
14:00 +16°C° 0 mm 2 mps 689 mmHg 49%
15:00 +15°C° 0 mm 2 mps 689 mmHg 54%
16:00 +14°C° 0 mm 2 mps 689 mmHg 59%
17:00 +12°C° 0 mm 2 mps 689 mmHg 68%
18:00 +10°C° 0 mm 1 mps 689 mmHg 77%
19:00 +7°C° 0 mm 1 mps 688 mmHg 86%
20:00 +7°C° 0 mm 1 mps 689 mmHg 87%
21:00 +6°C° 0 mm 1 mps 689 mmHg 88%
22:00 +5°C° 0 mm 0 mps 689 mmHg 89%
23:00 +5°C° 0 mm 0 mps 689 mmHg 90%

18 Agosto, Martes

Tiempo Temperatura Precipitaciones Viento Presión Humedad
00:00 +4°C° 0 mm 0 mps 689 mmHg 91%
01:00 +4°C° 0 mm 0 mps 689 mmHg 91%
02:00 +4°C° 0 mm 0 mps 689 mmHg 92%
03:00 +4°C° 0 mm 0 mps 688 mmHg 92%
04:00 +3°C° 0 mm 0 mps 688 mmHg 93%
05:00 +4°C° 0 mm 0 mps 689 mmHg 92%
06:00 +4°C° 0 mm 0 mps 689 mmHg 92%
07:00 +5°C° 0 mm 0 mps 690 mmHg 92%
08:00 +7°C° 0 mm 1 mps 690 mmHg 86%
09:00 +8°C° 0 mm 1 mps 690 mmHg 80%
10:00 +9°C° 0 mm 1 mps 691 mmHg 74%
11:00 +9°C° 0 mm 2 mps 690 mmHg 73%
12:00 +9°C° 0 mm 2 mps 690 mmHg 72%
13:00 +9°C° 0 mm 2 mps 690 mmHg 70%
14:00 +9°C° 0 mm 2 mps 690 mmHg 73%
15:00 +8°C° 0 mm 2 mps 690 mmHg 76%
16:00 +7°C° 0 mm 2 mps 690 mmHg 79%
17:00 +7°C° 0 mm 2 mps 691 mmHg 82%
18:00 +7°C° 0 mm 1 mps 691 mmHg 84%
19:00 +6°C° 0 mm 1 mps 692 mmHg 87%
20:00 +6°C° 0 mm 1 mps 692 mmHg 86%
21:00 +5°C° 0 mm 1 mps 692 mmHg 86%
22:00 +5°C° 0 mm 1 mps 693 mmHg 85%
23:00 +5°C° 0 mm 1 mps 693 mmHg 85%

19 Agosto, Miércoles

Tiempo Temperatura Precipitaciones Viento Presión Humedad
00:00 +5°C° 0 mm 1 mps 693 mmHg 84%
01:00 +5°C° 0 mm 1 mps 693 mmHg 83%
02:00 +5°C° 0 mm 1 mps 693 mmHg 84%
03:00 +5°C° 0 mm 1 mps 693 mmHg 84%
04:00 +4°C° 0 mm 1 mps 693 mmHg 84%
05:00 +4°C° 0 mm 1 mps 693 mmHg 84%
06:00 +4°C° 0 mm 1 mps 693 mmHg 84%
07:00 +4°C° 0 mm 1 mps 693 mmHg 84%
08:00 +5°C° 0 mm 1 mps 693 mmHg 79%
09:00 +7°C° 0 mm 1 mps 694 mmHg 73%
10:00 +8°C° 0 mm 1 mps 694 mmHg 67%
11:00 +9°C° 0 mm 1 mps 693 mmHg 64%
12:00 +10°C° 0 mm 1 mps 693 mmHg 60%
13:00 +9°C° 0 mm 2 mps 693 mmHg 57%
14:00 +9°C° 0 mm 2 mps 693 mmHg 58%
15:00 +9°C° 0 mm 2 mps 693 mmHg 59%
16:00 +9°C° 0 mm 2 mps 693 mmHg 60%
17:00 +8°C° 0 mm 2 mps 694 mmHg 67%
18:00 +7°C° 0 mm 1 mps 694 mmHg 75%
19:00 +5°C° 0 mm 1 mps 694 mmHg 82%
20:00 +5°C° 0 mm 1 mps 694 mmHg 82%
21:00 +5°C° 0 mm 1 mps 694 mmHg 81%
22:00 +5°C° 0 mm 1 mps 694 mmHg 81%
23:00 +5°C° 0 mm 1 mps 694 mmHg 80%
Mostrar más